Buffalo, SD

11:32 AM MDT on May 20, 2018 (GMT -0600)
Buffalo

Weather History for K2WX - May, 2013

Change the Weather History Date:

Tuesday, May 28, 2013

  Actual Average Record
Temperature  
Mean Temperature 58 °F 57 °F  
Max Temperature 73 °F 69 °F 88 °F (2014)
Min Temperature 43 °F 46 °F 35 °F (2012)
Degree Days  
Heating Degree Days 7 8  
Month to date heating degree days 279 339  
Since 1 July heating degree days 7503 7792  
Cooling Degree Days 0 0  
Month to date cooling degree days 10 0  
Year to date cooling degree days 10 0  
Growing Degree Days 8 (Base 50)    
Moisture  
Dew Point 47 °F    
Average Humidity 69    
Maximum Humidity 100    
Minimum Humidity 38    
Precipitation  
Precipitation 0.00 in 0.14 in 2.58 in (2001)
Month to date precipitation 2.22 2.68  
Year to date precipitation 3.86 5.57  
Sea Level Pressure  
Sea Level Pressure 29.63 in    
Wind  
Wind Speed 11 mph (NW)    
Max Wind Speed 25 mph    
Max Gust Speed 29 mph    
T = Trace of Precipitation, MM = Missing Value Source: NWS Daily Summary

Daily Weather History Graph

Daily Weather History Graph

Search for Another Location

Airport or City:

Astronomy

May. 28, 2013 Rise Set
Actual Time 5:10 AM MDT 8:32 PM MDT
Civil Twilight 4:34 AM MDT 9:09 PM MDT
Nautical Twilight 3:46 AM MDT 9:57 PM MDT
Astronomical Twilight 2:46 AM MDT 10:57 PM MDT
Moon 11:50 PM MDT (5/28) 9:06 AM MDT (5/28)
Length of Visible Light 16h 34m
Length of Day
15h 21m
Waning Gibbous, 82% of the Moon is Illuminated
May 28
Waning Gibbous
May 31
Last Quarter
Jun 8
New
Jun 16
First Quarter
Jun 23
Full

Hourly Weather History & Observations

Time (MDT) Temp. Windchill Dew Point Humidity Pressure Visibility Wind Dir Wind Speed Gust Speed Precip Events Conditions
12:56 AM 46.0 °F 42.5 °F 46.0 °F 100% 29.70 in - WNW 6.9 mph - N/A   Unknown
1:56 AM 46.0 °F 41.9 °F 45.0 °F 96% 29.68 in - SSW 8.1 mph - N/A   Unknown
2:56 AM 44.1 °F 39.0 °F 43.0 °F 96% 29.69 in - WSW 9.2 mph - N/A   Unknown
3:56 AM 45.0 °F 39.3 °F 43.0 °F 93% 29.68 in - West 11.5 mph - N/A   Unknown
4:56 AM 46.0 °F 41.4 °F 43.0 °F 89% 29.69 in - West 9.2 mph - N/A   Unknown
5:56 AM 45.0 °F 40.6 °F 43.0 °F 93% 29.68 in - West 8.1 mph - N/A   Unknown
6:56 AM 51.1 °F - 46.9 °F 86% 29.67 in - WSW 16.1 mph - N/A   Unknown
7:56 AM 55.9 °F - 48.0 °F 75% 29.65 in - WSW 18.4 mph - N/A   Unknown
8:56 AM 60.1 °F - 48.0 °F 64% 29.65 in - West 16.1 mph - N/A   Unknown
9:56 AM 64.9 °F - 45.0 °F 48% 29.63 in - West 21.9 mph - N/A   Unknown
10:56 AM 66.9 °F - 46.0 °F 47% 29.62 in - WNW 16.1 mph 25.3 mph N/A   Unknown
11:56 AM 68.0 °F - 43.0 °F 40% 29.63 in - WNW 15.0 mph 26.5 mph N/A   Unknown
12:56 PM 70.0 °F - 45.0 °F 41% 29.62 in - NW 12.7 mph 20.7 mph N/A   Unknown
1:56 PM 71.1 °F - 46.9 °F 42% 29.61 in - NW 8.1 mph - N/A   Unknown
2:56 PM 71.1 °F - 45.0 °F 39% 29.61 in - NNW 5.8 mph - N/A   Unknown
3:56 PM 70.0 °F - 44.1 °F 39% 29.62 in - Variable 4.6 mph - N/A   Unknown
4:56 PM 70.0 °F - 46.0 °F 42% 29.61 in - Calm Calm - N/A   Unknown
5:56 PM 70.0 °F - 48.0 °F 46% 29.60 in - NE 8.1 mph - N/A   Unknown
6:56 PM 68.0 °F - 48.9 °F 50% 29.59 in - North 6.9 mph - N/A   Unknown
7:56 PM 66.9 °F - 51.1 °F 57% 29.58 in - NE 9.2 mph - N/A   Unknown
8:56 PM 61.0 °F - 52.0 °F 72% 29.58 in - NE 9.2 mph - N/A   Unknown
9:56 PM 59.0 °F - 51.1 °F 75% 29.61 in - ENE 9.2 mph - N/A   Unknown
10:56 PM 60.1 °F - 51.1 °F 72% 29.61 in - East 10.4 mph - N/A   Unknown
11:56 PM 61.0 °F - 50.0 °F 67% 29.60 in - East 10.4 mph - N/A   Unknown